[[{"header":{"parameterUnit":"m.s-1","parameterCategory":1,"la1":30.2991,"la2":30.254,"lo1":-89.0895,"lo2":-89.0444,"dy":0.0017,"dx":0.0017,"nx":28,"ny":28,"refTime":"2024-06-11T21:00:00:Z","depth":0,"parameterNumber":2,"parameterNumberName":"U-component_of_WINDS"},"data":[0,0,0,0,0,0,0,0,0,0,0,0,0,0,0,0,0,0,0,0,0,0,0,0,0,0,0,0,0,0,0,0,0,0,0,0,0,0,0,0,0,0,0,0,0,0,0,0,0,0,0,0,0,0,0,0,0,0,-0.5594,-0.5593,0,-0.5497,-0.5496,-0.5495,-0.5426,-0.5425,-0.5425,-0.5424,-0.5323,-0.5321,-0.5318,0,0,0,0,0,0,0,0,0,0,0,0,0,-0.5719,-0.5717,-0.5594,-0.5593,-0.5592,-0.5497,-0.5496,-0.5495,-0.5426,-0.5425,-0.5424,-0.5424,-0.5323,-0.5321,-0.5318,0,0,0,0,0,0,0,0,0,0,0,0,0,-0.5647,-0.5716,-0.5594,-0.5546,-0.5541,-0.5498,-0.5496,-0.5494,-0.5426,-0.5425,-0.5424,-0.5423,-0.5324,-0.5321,-0.5318,-0.5314,0,0,-0.5308,-0.5306,0,0,0,0,0,0,0,0,-0.5651,-0.5643,-0.5554,-0.5549,-0.5543,-0.5473,-0.5503,-0.5434,-0.5426,-0.5469,-0.5424,-0.5423,-0.5373,-0.5366,-0.5349,-0.531,-0.5305,-0.5308,-0.5306,-0.5304,-0.5303,0,0,0,0,0,0,0,-0.5656,-0.5647,-0.5556,-0.5553,-0.5546,-0.5529,-0.5518,-0.5489,-0.5427,-0.5466,-0.546,-0.545,-0.537,-0.5353,-0.5346,-0.5304,-0.5308,-0.5305,-0.5303,-0.5301,-0.5258,-0.5259,0,0,0,0,0,0,-0.5669,-0.5651,-0.5559,-0.5553,-0.5596,-0.5527,-0.5515,-0.5496,-0.5427,-0.5416,-0.5451,-0.5447,-0.5359,-0.535,-0.5343,-0.5335,-0.5304,-0.5301,-0.5299,-0.5257,-0.5258,-0.5259,0,0,0,0,0,0,-0.5672,-0.5662,-0.5563,-0.56,-0.5587,-0.5526,-0.5505,-0.5495,-0.5477,-0.5416,-0.5404,-0.5445,-0.5358,-0.5347,-0.5322,-0.5331,-0.53,-0.5297,-0.5256,-0.5257,-0.5258,-0.532,0,0,0,0,0,0,-0.5676,-0.5663,-0.5661,-0.5601,-0.5585,-0.5545,-0.5506,-0.5493,-0.5472,-0.5466,-0.5407,-0.5397,-0.5356,-0.5328,-0.5319,-0.5326,-0.5294,-0.5255,-0.5257,-0.5258,-0.5317,-0.5323,-0.5329,0,0,0,0,0,-0.5681,-0.5682,-0.5662,-0.5651,-0.5581,-0.5545,-0.5536,-0.549,-0.5473,-0.5471,-0.5432,-0.5398,-0.5331,-0.5326,-0.5315,-0.5321,-0.5254,-0.5256,-0.5258,-0.5315,-0.5322,-0.5329,0,0,0,0,0,0,-0.5744,-0.5673,-0.565,-0.5631,-0.5595,-0.5534,-0.5529,-0.5499,-0.5466,-0.5462,-0.5406,-0.5393,-0.5375,-0.5345,-0.534,-0.5315,-0.5289,-0.5289,-0.5335,-0.5342,-0.5348,-0.5356,-0.5291,0,0,0,0,0,-0.5756,-0.5733,-0.5672,-0.5661,-0.5644,-0.559,-0.5573,-0.5541,-0.55,-0.5484,-0.5443,-0.5405,-0.5375,-0.5357,-0.5326,-0.5312,-0.5299,-0.5311,-0.5317,-0.5322,-0.5323,-0.5315,-0.5321,-0.5265,-0.5265,-0.5265,0,0,-0.578,-0.5738,-0.5727,-0.5673,-0.5641,-0.5618,-0.5578,-0.5555,-0.5538,-0.548,-0.5455,-0.5424,-0.5377,-0.5359,-0.5349,-0.5334,-0.5335,-0.5324,-0.5329,-0.5327,-0.5318,-0.5323,-0.5328,-0.5266,-0.5266,-0.5266,0,0,-0.5812,-0.5778,-0.5767,-0.5736,-0.5688,-0.5652,-0.565,-0.5593,-0.5571,-0.5544,-0.5502,-0.548,-0.5429,-0.5399,-0.5376,-0.5399,-0.5368,-0.539,-0.5421,-0.5414,-0.5419,-0.5422,-0.5432,-0.5436,-0.5391,-0.5391,-0.5391,0,-0.5848,-0.5813,-0.5764,-0.5745,-0.5723,-0.5671,-0.5659,-0.5631,-0.5576,-0.5562,-0.5546,-0.5483,-0.5448,-0.5423,-0.5428,-0.5411,-0.5407,-0.5397,-0.5422,-0.5425,-0.5428,-0.5437,-0.544,-0.5395,-0.5394,-0.5394,-0.5394,0,-0.586,-0.5836,-0.5832,-0.5782,-0.5759,-0.5744,-0.5693,-0.5676,-0.5646,-0.5612,-0.5587,-0.5543,-0.5503,-0.5494,-0.5464,-0.5465,-0.5458,-0.5433,-0.5405,-0.5437,-0.5445,-0.5447,-0.5399,-0.5398,-0.5397,-0.5396,0,0,-0.5929,-0.5853,-0.5853,-0.583,-0.5774,-0.5755,-0.5737,-0.5699,-0.5686,-0.565,-0.5634,-0.5593,-0.5571,-0.5546,-0.5512,-0.5506,-0.5529,-0.5481,-0.5479,-0.5493,-0.5528,-0.5549,-0.5553,-0.5507,-0.5507,-0.5508,-0.5533,0,-0.5955,-0.5921,-0.5878,-0.5859,-0.5837,-0.5788,-0.5772,-0.5737,-0.5705,-0.5681,-0.5645,-0.5618,-0.5589,-0.5574,-0.5566,-0.5528,-0.5535,-0.5525,-0.5493,-0.5492,-0.5508,-0.5557,-0.5578,-0.5603,-0.5535,-0.5536,-0.5536,0,-0.5979,-0.5947,-0.5927,-0.5875,-0.5864,-0.5851,-0.5813,-0.5791,-0.575,-0.5727,-0.57,-0.5664,-0.5643,-0.5618,-0.559,-0.5584,-0.5568,-0.5547,-0.5547,-0.5543,-0.5517,-0.5556,-0.561,-0.5615,-0.554,-0.5539,-0.5539,0,-0.6035,-0.5986,-0.5968,-0.5949,-0.5887,-0.588,-0.5853,-0.5811,-0.5792,-0.5759,-0.5746,-0.571,-0.5691,-0.5665,-0.5621,-0.5606,-0.5597,-0.5568,-0.5579,-0.558,-0.558,-0.5581,-0.5634,-0.5567,-0.5567,-0.5567,-0.5567,0,-0.6068,-0.6058,-0.5992,-0.5981,-0.5968,-0.5918,-0.5907,-0.5876,-0.5839,-0.5821,-0.5776,-0.576,-0.5702,-0.5679,-0.5644,-0.5627,-0.5618,-0.56,-0.5591,-0.5605,-0.5607,-0.5594,-0.5592,-0.5568,-0.5568,-0.5568,-0.5568,0,-0.6128,-0.6083,-0.606,-0.6004,-0.5989,-0.5983,-0.5934,-0.5922,-0.5888,-0.5866,-0.5858,-0.5804,-0.5775,-0.5728,-0.5685,-0.5662,-0.5652,-0.5635,-0.5666,-0.5661,-0.5675,-0.5675,-0.5723,-0.5728,-0.5657,-0.5658,-0.5658,0,-0.6153,-0.6144,-0.6087,-0.6073,-0.6048,-0.6025,-0.6005,-0.5956,-0.5937,-0.589,-0.5884,-0.5852,-0.5824,-0.5781,-0.5738,-0.5705,-0.5689,-0.5708,-0.5684,-0.5699,-0.5691,-0.5693,-0.5693,-0.5714,-0.5715,-0.5716,-0.5717,0,-0.6203,-0.6181,-0.6155,-0.6122,-0.61,-0.6071,-0.6039,-0.603,-0.5973,-0.5955,-0.5925,-0.5904,-0.5861,-0.5831,-0.5792,-0.5765,-0.5732,-0.5725,-0.5726,-0.574,-0.5759,-0.5751,-0.5683,-0.5724,-0.5723,-0.5723,-0.5722,-0.5722,-0.6247,-0.6237,-0.6197,-0.6169,-0.6141,-0.6113,-0.6099,-0.6064,-0.6039,-0.6001,-0.5972,-0.5946,-0.5906,-0.5851,-0.5826,-0.5804,-0.5789,-0.579,-0.5791,-0.5792,-0.5799,-0.5762,-0.5797,-0.5796,-0.5796,-0.5796,-0.5796,0,-0.6296,-0.6268,-0.6243,-0.6201,-0.618,-0.6151,-0.6115,-0.6099,-0.6077,-0.6042,-0.6016,-0.5984,-0.5954,-0.5909,-0.5876,-0.5868,-0.5852,-0.5861,-0.5862,-0.5857,-0.5813,-0.5816,-0.5874,-0.5874,-0.5874,-0.5874,-0.5874,-0.5874,-0.6319,-0.6302,-0.6277,-0.6245,-0.6216,-0.6191,-0.6173,-0.6147,-0.612,-0.6086,-0.6062,-0.6033,-0.5994,-0.5959,-0.5931,-0.5918,-0.5909,-0.5923,-0.5906,-0.5866,-0.5859,-0.5852,-0.5855,-0.5921,-0.5921,-0.5952,-0.5952,-0.5952]},{"header":{"parameterUnit":"m.s-1","parameterCategory":1,"la1":30.2991,"la2":30.254,"lo1":-89.0895,"lo2":-89.0444,"dy":0.0017,"dx":0.0017,"nx":28,"ny":28,"refTime":"2024-06-11T21:00:00:Z","depth":0,"parameterNumber":3,"parameterNumberName":"V-component_of_WINDS"},"data":[0,0,0,0,0,0,0,0,0,0,0,0,0,0,0,0,0,0,0,0,0,0,0,0,0,0,0,0,0,0,0,0,0,0,0,0,0,0,0,0,0,0,0,0,0,0,0,0,0,0,0,0,0,0,0,0,0,0,2.7968,2.7967,0,2.7959,2.7959,2.7959,2.7951,2.7951,2.7951,2.7951,2.794,2.794,2.794,0,0,0,0,0,0,0,0,0,0,0,0,0,2.7972,2.7972,2.7968,2.7967,2.7967,2.796,2.7959,2.7959,2.7951,2.7951,2.7951,2.7951,2.794,2.794,2.794,0,0,0,0,0,0,0,0,0,0,0,0,0,2.7967,2.7972,2.7968,2.7962,2.7962,2.796,2.7959,2.7959,2.7951,2.7951,2.7951,2.7951,2.794,2.794,2.794,2.7941,0,0,2.7939,2.7939,0,0,0,0,0,0,0,0,2.7968,2.7967,2.7963,2.7963,2.7962,2.7956,2.7957,2.7953,2.7951,2.7955,2.7951,2.7951,2.7945,2.7945,2.7943,2.794,2.794,2.7939,2.7939,2.7939,2.7938,0,0,0,0,0,0,0,2.7968,2.7967,2.7964,2.7963,2.7963,2.7959,2.7958,2.7956,2.7951,2.7955,2.7954,2.7954,2.7945,2.7944,2.7943,2.794,2.7939,2.7939,2.7938,2.7938,2.7934,2.7934,0,0,0,0,0,0,2.7969,2.7968,2.7965,2.7964,2.7965,2.7959,2.7958,2.7958,2.7951,2.795,2.7954,2.7953,2.7944,2.7944,2.7943,2.7942,2.7939,2.7938,2.7938,2.7934,2.7934,2.7934,0,0,0,0,0,0,2.797,2.7969,2.7965,2.7966,2.7965,2.7959,2.7959,2.7958,2.7957,2.795,2.7949,2.7954,2.7944,2.7943,2.7941,2.7941,2.7938,2.7938,2.7934,2.7934,2.7934,2.7941,0,0,0,0,0,0,2.797,2.7969,2.7971,2.7966,2.7965,2.7965,2.7959,2.7958,2.7957,2.7956,2.795,2.7949,2.7944,2.7941,2.7941,2.7941,2.7938,2.7934,2.7934,2.7934,2.7941,2.7941,2.7942,0,0,0,0,0,2.797,2.7974,2.7971,2.7971,2.7967,2.7965,2.7964,2.7959,2.7957,2.7957,2.7953,2.7949,2.7941,2.7941,2.794,2.794,2.7934,2.7934,2.7934,2.794,2.7941,2.7942,0,0,0,0,0,0,2.7979,2.7973,2.797,2.7973,2.7969,2.7963,2.7964,2.7961,2.7957,2.7957,2.795,2.7949,2.7947,2.7943,2.7943,2.7939,2.7937,2.7937,2.7942,2.7943,2.7943,2.7944,2.7937,0,0,0,0,0,2.7981,2.7981,2.7975,2.7978,2.7976,2.797,2.7969,2.7966,2.7962,2.796,2.7955,2.7951,2.7947,2.7945,2.7941,2.794,2.7937,2.7939,2.794,2.794,2.794,2.7936,2.7937,2.7934,2.7934,2.7934,0,0,2.7986,2.7982,2.7983,2.7979,2.7976,2.7974,2.7969,2.7968,2.7966,2.796,2.7957,2.7953,2.7947,2.7945,2.7943,2.7942,2.794,2.794,2.7941,2.794,2.7937,2.7937,2.7937,2.7934,2.7934,2.7934,0,0,2.7993,2.7991,2.7992,2.7989,2.7984,2.798,2.798,2.7974,2.7971,2.7968,2.7963,2.7959,2.7954,2.7949,2.7946,2.7948,2.7943,2.7947,2.795,2.7946,2.7946,2.7946,2.7945,2.7945,2.7947,2.7947,2.7947,0,2.7999,2.7998,2.7993,2.7991,2.7989,2.7982,2.7982,2.7978,2.7973,2.797,2.7969,2.796,2.7955,2.7951,2.7951,2.7949,2.7947,2.7948,2.7947,2.7947,2.7947,2.7946,2.7946,2.7947,2.7947,2.7947,2.7947,0,2.8004,2.8003,2.8003,2.7998,2.7995,2.7995,2.7988,2.7985,2.7981,2.7977,2.7972,2.7966,2.796,2.7959,2.7955,2.7953,2.7951,2.7949,2.7945,2.7948,2.7946,2.7946,2.7948,2.7947,2.7947,2.7947,0,0,2.8018,2.8008,2.8009,2.8005,2.7998,2.7996,2.7993,2.7988,2.7985,2.798,2.7977,2.7971,2.7967,2.7963,2.7958,2.7956,2.7955,2.7953,2.7952,2.7952,2.7949,2.7951,2.7951,2.7952,2.7952,2.7952,2.7949,0,2.8023,2.802,2.8014,2.8011,2.8008,2.8001,2.7998,2.7993,2.7987,2.7983,2.7977,2.7972,2.7969,2.7966,2.7963,2.7956,2.7954,2.7956,2.7946,2.7946,2.7948,2.795,2.7953,2.795,2.7949,2.7949,2.7949,0,2.8029,2.8025,2.8022,2.8013,2.8011,2.8009,2.8002,2.7999,2.7991,2.7987,2.7982,2.7976,2.7971,2.7968,2.7959,2.7961,2.7956,2.7952,2.7951,2.795,2.7947,2.7947,2.795,2.7949,2.7948,2.7948,2.7948,0,2.8038,2.8031,2.8028,2.8025,2.8015,2.8013,2.8008,2.8001,2.7997,2.799,2.7987,2.7979,2.7975,2.7968,2.796,2.7959,2.7951,2.7948,2.7946,2.7946,2.7945,2.7945,2.7945,2.7943,2.7943,2.7943,2.7943,0,2.8043,2.8042,2.8031,2.8029,2.8025,2.8018,2.8014,2.8009,2.8001,2.7997,2.799,2.7985,2.7975,2.7968,2.7961,2.7953,2.7952,2.7947,2.7945,2.7948,2.7948,2.7944,2.7944,2.7943,2.7943,2.7943,2.7943,0,2.8053,2.8046,2.8041,2.8031,2.8029,2.8026,2.8017,2.8014,2.8007,2.8001,2.7999,2.7989,2.798,2.7971,2.796,2.7955,2.7947,2.7945,2.795,2.7949,2.7947,2.7947,2.7944,2.7943,2.7943,2.7943,2.7943,0,2.8056,2.8055,2.8044,2.8041,2.8036,2.8031,2.8027,2.8018,2.8013,2.8003,2.8,2.7991,2.7984,2.797,2.7961,2.7951,2.7948,2.7948,2.7947,2.7948,2.7946,2.7946,2.7945,2.7948,2.7948,2.7948,2.7948,0,2.8063,2.8059,2.8054,2.8046,2.8041,2.8035,2.8028,2.8025,2.8015,2.8009,2.8001,2.7995,2.7983,2.7973,2.7962,2.7956,2.7949,2.7949,2.7947,2.7949,2.7952,2.7949,2.795,2.7949,2.7949,2.7949,2.7949,2.7949,2.8069,2.8066,2.8058,2.8051,2.8045,2.8038,2.8033,2.8026,2.8019,2.8009,2.8004,2.7995,2.7984,2.7969,2.7962,2.7953,2.7952,2.795,2.795,2.7949,2.7949,2.7953,2.7951,2.7951,2.7951,2.7951,2.7951,0,2.8074,2.8068,2.8062,2.8052,2.8046,2.8041,2.8033,2.8028,2.802,2.8011,2.8004,2.7992,2.7982,2.7971,2.796,2.7955,2.7952,2.7953,2.7952,2.795,2.7952,2.7954,2.7955,2.7955,2.7955,2.7955,2.7955,2.7955,2.8076,2.807,2.8065,2.8055,2.8048,2.804,2.8035,2.8028,2.802,2.8008,2.8,2.7993,2.7983,2.797,2.796,2.7957,2.7952,2.7954,2.7949,2.7951,2.7951,2.795,2.7952,2.7953,2.7953,2.7948,2.7948,2.7948]}]]